Change the Weather History Date:

Wednesday, October 9, 2013

  Actual Average Record
Temperature  
Mean Temperature 46 °F 48 °F  
Max Temperature 51 °F 61 °F 82 °F (1954)
Min Temperature 41 °F 35 °F 13 °F (2009)
Degree Days  
Heating Degree Days 19 17  
Month to date heating degree days 200 138  
Since 1 July heating degree days 387 402  
Cooling Degree Days 0 0  
Month to date cooling degree days 0 0  
Year to date cooling degree days 798 494  
Moisture  
Dew Point 36 °F    
Average Humidity 65    
Maximum Humidity 76    
Minimum Humidity 54    
Precipitation  
Precipitation 0.01 in 0.04 in 0.23 in (2009)
Month to date precipitation 1.12 0.40  
Year to date precipitation 8.19 8.12  
Snow  
Snow 0.00 in - - ()
Month to date snowfall 6.8  
Since 1 July snowfall 14.1  
Since 1 September snowfall 14.1  
Snow Depth 0.00 in    
Sea Level Pressure  
Sea Level Pressure 29.92 in    
Wind  
Wind Speed 6 mph (NNE)    
Max Wind Speed 14 mph    
Max Gust Speed 18 mph    
Visibility 10 miles    
Events Rain    
T = Trace of Precipitation, MM = Missing Value Source: NWS Daily Summary

Daily Weather History Graph

Daily Weather History Graph

Search for Another Location

Airport or City:

Trip Planner

Search our weather history database for the weather conditions in past years. The results will help you decide how hot, cold, wet, or windy it might be!

Date:

Astronomy

Oct. 09, 2013 Rise Set
Actual Time 7:20 AM MDT 6:40 PM MDT
Civil Twilight 6:52 AM MDT 7:08 PM MDT
Nautical Twilight 6:19 AM MDT 7:41 PM MDT
Astronomical Twilight 5:46 AM MDT 8:14 PM MDT
Moon 12:25 PM MDT (10/9) 10:12 PM MDT (10/9)
Length of Visible Light 12h 16m
Length of Day
11h 19m
Waxing Crescent, 26% of the Moon is Illuminated
Oct 9
Waxing Crescent
Oct 11
First Quarter
Oct 18
Full
Oct 26
Last Quarter
Nov 3
New

Hourly Weather History & Observations

Time (MDT) Temp. Windchill Dew Point Humidity Pressure Visibility Wind Dir Wind Speed Gust Speed Precip Events Conditions
12:53 AM 46.9 °F - 35.1 °F 63% 29.82 in 10.0 mi North 11.5 mph - N/A   Mostly Cloudy
1:53 AM 45.0 °F 43.5 °F 35.1 °F 68% 29.85 in 10.0 mi NW 3.5 mph - N/A   Overcast
2:53 AM 45.0 °F 43.5 °F 35.1 °F 68% 29.86 in 10.0 mi Variable 3.5 mph - 0.00 in Rain Light Rain
3:53 AM 45.0 °F 40.6 °F 37.9 °F 76% 29.84 in 10.0 mi East 8.1 mph - 0.01 in   Overcast
4:53 AM 45.0 °F 41.2 °F 36.0 °F 71% 29.86 in 10.0 mi East 6.9 mph - N/A   Mostly Cloudy
5:53 AM 43.0 °F 38.2 °F 35.1 °F 74% 29.89 in 10.0 mi ESE 8.1 mph - N/A   Mostly Cloudy
6:53 AM 42.1 °F 39.2 °F 35.1 °F 76% 29.91 in 10.0 mi North 4.6 mph - N/A   Partly Cloudy
7:53 AM 42.1 °F 39.2 °F 36.0 °F 79% 29.94 in 10.0 mi NNE 4.6 mph - N/A   Overcast
8:53 AM 44.1 °F - 36.0 °F 73% 29.97 in 10.0 mi Calm Calm - N/A   Mostly Cloudy
9:53 AM 45.0 °F 41.8 °F 36.0 °F 71% 29.98 in 10.0 mi NNE 5.8 mph - N/A   Mostly Cloudy
10:53 AM 46.0 °F 43.9 °F 34.0 °F 63% 29.99 in 10.0 mi East 4.6 mph - N/A   Overcast
11:53 AM 46.9 °F - 34.0 °F 61% 29.99 in 10.0 mi Calm Calm - N/A   Scattered Clouds
12:53 PM 48.9 °F - 35.1 °F 59% 29.96 in 10.0 mi Variable 3.5 mph - N/A   Mostly Cloudy
1:53 PM 48.9 °F - 35.1 °F 59% 29.96 in 10.0 mi Variable 4.6 mph - N/A   Overcast
2:53 PM 51.1 °F - 36.0 °F 56% 29.93 in 10.0 mi NNE 5.8 mph - N/A   Scattered Clouds
3:53 PM 50.0 °F - 36.0 °F 59% 29.93 in 10.0 mi Calm Calm - N/A   Overcast
4:53 PM 50.0 °F - 37.0 °F 61% 29.91 in 10.0 mi NNW 9.2 mph - N/A   Overcast
5:53 PM 48.9 °F - 37.9 °F 66% 29.93 in 10.0 mi NNW 8.1 mph - N/A   Overcast
6:53 PM 46.0 °F 42.5 °F 37.9 °F 73% 29.94 in 10.0 mi NW 6.9 mph - N/A   Mostly Cloudy
7:53 PM 46.9 °F - 37.0 °F 68% 29.93 in 10.0 mi NNW 6.9 mph - N/A   Overcast
8:53 PM 46.9 °F - 37.9 °F 71% 29.92 in 10.0 mi North 6.9 mph - N/A   Overcast
9:53 PM 46.9 °F - 37.9 °F 71% 29.93 in 10.0 mi East 8.1 mph - N/A   Overcast
10:53 PM 46.0 °F 40.2 °F 35.1 °F 66% 29.92 in 10.0 mi East 12.7 mph - N/A   Overcast
11:53 PM 45.0 °F 40.6 °F 35.1 °F 68% 29.89 in 10.0 mi ENE 8.1 mph - N/A   Overcast